Kerkira, Greece

2:51 AM EET on January 23, 2017 (GMT +0200)
Ioannis Kapodistrias

Weather History for LGKR - January, 2013

Change the Weather History Date:

Sunday, January 6, 2013

  Actual Average Record
Temperature  
Mean Temperature 50 °F -  
Max Temperature 56 °F 57 °F 64 °F (2016)
Min Temperature 44 °F 41 °F 26 °F (2002)
Degree Days  
Heating Degree Days 15    
Moisture  
Dew Point 43 °F    
Average Humidity 72    
Maximum Humidity 93    
Minimum Humidity 55    
Precipitation  
Precipitation 0.00 in 0.17 in - ()
Sea Level Pressure  
Sea Level Pressure 29.89 in    
Wind  
Wind Speed 10 mph ()    
Max Wind Speed 18 mph    
Max Gust Speed -    
Visibility 6.4 miles    
Events      
Averages and records for this station are not official NWS values.
T = Trace of Precipitation, MM = Missing Value Source: Averaged Metar Reports

Daily Weather History Graph

Daily Weather History Graph

Search for Another Location

Airport or City:

Trip Planner

Search our weather history database for the weather conditions in past years. The results will help you decide how hot, cold, wet, or windy it might be!

Date:

Astronomy

Jan. 06, 2013 Rise Set
Actual Time 8:01 AM EET 5:31 PM EET
Civil Twilight 7:31 AM EET 6:01 PM EET
Nautical Twilight 6:57 AM EET 6:34 PM EET
Astronomical Twilight 6:25 AM EET 7:07 PM EET
Moon 1:55 AM EET (1/6) 12:46 PM EET (1/6)
Length of Visible Light 10h 30m
Length of Day
9h 30m
Last Quarter, 36% of the Moon is Illuminated
Jan 6
Last Quarter
Jan 11
New
Jan 19
First Quarter
Jan 27
Full
Feb 3
Last Quarter

Hourly Weather History & Observations

Time (EET) Temp. Windchill Dew Point Humidity Pressure Visibility Wind Dir Wind Speed Gust Speed Precip Events Conditions
12:20 AM 46.4 °F - 44.6 °F 93% 29.86 in 6.2 mi Calm Calm - N/A   Scattered Clouds
12:50 AM 48.2 °F - 44.6 °F 87% 29.83 in 6.2 mi South 4.6 mph - N/A   Scattered Clouds
1:20 AM 48.2 °F - 44.6 °F 87% 29.83 in 6.2 mi SSW 4.6 mph - N/A   Scattered Clouds
1:50 AM 50.0 °F - 44.6 °F 82% 29.83 in 6.2 mi NNW 10.4 mph - N/A   Scattered Clouds
2:00 AM 50 °F - 45 °F 76% 29.83 in 6 mi NNW 10.4 mph - -   Partly Cloudy
2:20 AM 50.0 °F - 44.6 °F 82% 29.83 in 6.2 mi NNW 12.7 mph - N/A   Scattered Clouds
2:50 AM 50.0 °F - 44.6 °F 82% 29.80 in 6.2 mi NW 13.8 mph - N/A   Scattered Clouds
3:20 AM 50.0 °F - 44.6 °F 82% 29.80 in 6.2 mi NNW 12.7 mph - N/A   Scattered Clouds
3:50 AM 50.0 °F - 42.8 °F 76% 29.80 in 6.2 mi NNW 10.4 mph - N/A   Scattered Clouds
4:20 AM 50.0 °F - 42.8 °F 76% 29.80 in 6.2 mi NNW 10.4 mph - N/A   Scattered Clouds
4:50 AM 51.8 °F - 42.8 °F 71% 29.80 in 6.2 mi NW 12.7 mph - N/A   Partly Cloudy
5:20 AM 51.8 °F - 42.8 °F 71% 29.80 in 6.2 mi NW 12.7 mph - N/A   Partly Cloudy
5:50 AM 53.6 °F - 44.6 °F 72% 29.80 in 6.2 mi NNW 13.8 mph - N/A   Partly Cloudy
6:20 AM 53.6 °F - 44.6 °F 72% 29.80 in 6.2 mi NW 10.4 mph - N/A   Partly Cloudy
6:50 AM 53.6 °F - 42.8 °F 67% 29.83 in 6.2 mi North 10.4 mph - N/A   Partly Cloudy
7:20 AM 53.6 °F - 42.8 °F 67% 29.83 in 6.2 mi NNE 10.4 mph - N/A   Partly Cloudy
7:50 AM 51.8 °F - 41.0 °F 67% 29.86 in 6.2 mi North 18.4 mph - N/A   Partly Cloudy
8:00 AM 52 °F - 41 °F 56% 29.86 in 12 mi North 18.4 mph - -   Scattered Clouds
8:20 AM 51.8 °F - 41.0 °F 67% 29.86 in 6.2 mi NNW 17.3 mph - N/A   Partly Cloudy
8:50 AM 50.0 °F - 39.2 °F 66% 29.89 in 6.2 mi NNW 15.0 mph - N/A   Partly Cloudy
9:20 AM 50.0 °F - 39.2 °F 66% 29.89 in 6.2 mi NNW 15.0 mph - N/A   Partly Cloudy
9:50 AM 53.6 °F - 42.8 °F 67% 29.92 in 6.2 mi NNW 15.0 mph - N/A   Partly Cloudy
10:20 AM 53.6 °F - 42.8 °F 67% 29.92 in 6.2 mi NNW 13.8 mph - N/A   Partly Cloudy
10:50 AM 55.4 °F - 42.8 °F 63% 29.92 in 6.2 mi North 10.4 mph - N/A   Partly Cloudy
11:20 AM 55.4 °F - 42.8 °F 63% 29.95 in 6.2 mi NNW 10.4 mph - N/A   Partly Cloudy
11:50 AM 53.6 °F - 44.6 °F 72% 29.95 in 6.2 mi North 12.7 mph - N/A   Partly Cloudy
12:20 PM 53.6 °F - 44.6 °F 72% 29.95 in 6.2 mi NNW 15.0 mph - N/A   Partly Cloudy
12:50 PM 55.4 °F - 44.6 °F 67% 29.92 in 6.2 mi NNW 11.5 mph - N/A   Partly Cloudy
1:20 PM 55.4 °F - 44.6 °F 67% 29.92 in 6.2 mi NNW 13.8 mph - N/A   Partly Cloudy
1:50 PM 55.4 °F - 44.6 °F 67% 29.92 in 6.2 mi NW 13.8 mph - N/A   Partly Cloudy
2:00 PM 56 °F - 44 °F 55% 29.93 in 12 mi NW 13.8 mph - -   Scattered Clouds
2:20 PM 55.4 °F - 44.6 °F 67% 29.92 in 6.2 mi North 17.3 mph - N/A   Partly Cloudy
2:50 PM 55.4 °F - 44.6 °F 67% 29.92 in 6.2 mi North 17.3 mph - N/A   Partly Cloudy
3:20 PM 57.2 °F - 42.8 °F 59% 29.92 in 6.2 mi North 15.0 mph - N/A   Partly Cloudy
3:50 PM 55.4 °F - 44.6 °F 67% 29.92 in 6.2 mi NNW 16.1 mph - N/A   Partly Cloudy
4:20 PM 55.4 °F - 44.6 °F 67% 29.92 in 6.2 mi North 16.1 mph - N/A   Partly Cloudy
4:50 PM 53.6 °F - 46.4 °F 77% 29.92 in 6.2 mi WNW 8.1 mph - N/A   Partly Cloudy
5:20 PM 53.6 °F - 46.4 °F 77% 29.92 in 6.2 mi WNW 8.1 mph - N/A   Partly Cloudy
5:50 PM 51.8 °F - 46.4 °F 82% 29.92 in 6.2 mi West 9.2 mph - N/A   Partly Cloudy
6:20 PM 51.8 °F - 46.4 °F 82% 29.92 in 6.2 mi WNW 9.2 mph - N/A   Partly Cloudy
6:50 PM 50.0 °F - 44.6 °F 82% 29.95 in 6.2 mi NW 6.9 mph - N/A   Partly Cloudy
7:20 PM 50.0 °F - 44.6 °F 82% 29.95 in 6.2 mi NW 11.5 mph - N/A   Partly Cloudy
7:50 PM 50.0 °F - 41.0 °F 71% 29.95 in 6.2 mi NW 11.5 mph - N/A   Partly Cloudy
8:00 PM 50 °F - 42 °F 65% 29.96 in 6 mi NW 11.5 mph - -   Scattered Clouds
8:20 PM 50.0 °F - 41.0 °F 71% 29.95 in 6.2 mi NNW 16.1 mph - N/A   Partly Cloudy
8:50 PM 50.0 °F - 41.0 °F 71% 29.95 in - WNW 9.2 mph - N/A   Clear
9:20 PM 50.0 °F - 41.0 °F 71% 29.95 in - South 5.8 mph - N/A   Clear
9:50 PM 46.4 °F 41.9 °F 37.4 °F 71% 29.95 in - West 9.2 mph - N/A   Clear
10:20 PM 46.4 °F 42.9 °F 37.4 °F 71% 29.95 in - WNW 6.9 mph - N/A   Clear
10:50 PM 44.6 °F - 39.2 °F 81% 29.95 in - Calm Calm - N/A   Clear
11:20 PM 46.4 °F 41.9 °F 39.2 °F 76% 29.95 in - ENE 9.2 mph - N/A   Clear
11:50 PM 46.4 °F 44.3 °F 37.4 °F 71% 29.95 in - NW 4.6 mph - N/A   Clear